CW1961 Weather Reports


Display with metric or nautical units.
time (UTC)temp
F
wind
direction
speed
MPH
gust
MPH
rain 1hr
in
rain 24hr
in
rain mn
in
humidity
%
barometer
mb
20181019171312 56 189 10.0 15.0 0.00 0.63 0.62 91 1024.6
20181019170321 56 199 8.0 19.0 0.00 0.63 0.62 92 1024.7
20181019165326 56 181 8.0 14.0 0.00 0.63 0.62 92 1024.9
20181019164314 55 211 8.0 16.0 0.00 0.63 0.62 93 1024.9
20181019163324 55 146 8.0 13.0 0.00 0.63 0.62 95 1025.2
20181019162312 55 190 10.0 17.0 0.00 0.63 0.62 95 1025.4
20181019161324 55 203 8.0 13.0 0.00 0.63 0.62 97 1025.6
20181019160313 55 194 6.0 16.0 0.00 0.63 0.62 97 1025.7
20181019155321 55 196 10.0 15.0 0.01 0.63 0.62 97 1025.7
20181019154314 54 194 8.0 15.0 0.01 0.63 0.62 98 1026.0
20181019153322 54 205 6.0 14.0 0.01 0.63 0.62 98 1026.3
20181019152311 54 202 7.0 11.0 0.01 0.63 0.62 98 1026.2
20181019151320 54 196 9.0 13.0 0.01 0.63 0.62 98 1026.1
20181019150313 53 181 8.0 11.0 0.01 0.63 0.62 99 1026.0
20181019145323 53 189 7.0 11.0 0.00 0.62 0.61 99 1026.0
20181019144312 53 213 7.0 11.0 0.00 0.62 0.61 99 1025.9
20181019143320 53 195 5.0 11.0 0.01 0.62 0.61 99 1026.0
20181019142314 52 160 6.0 9.0 0.03 0.62 0.61 99 1026.0
20181019141323 52 145 4.0 8.0 0.04 0.62 0.61 99 1026.0
20181019140311 52 167 5.0 9.0 0.05 0.62 0.61 98 1026.4
20181019135319 51 163 5.0 8.0 0.07 0.62 0.61 99 1026.4
20181019134312 51 167 5.0 7.0 0.08 0.62 0.61 98 1026.4
20181019133319 51 193 4.0 6.0 0.08 0.61 0.60 98 1026.3
20181019132307 51 195 3.0 5.0 0.06 0.59 0.58 98 1026.3
20181019131321 51 175 3.0 5.0 0.07 0.58 0.57 98 1026.0
20181019130311 51 144 2.0 5.0 0.08 0.57 0.56 98 1026.0
20181019125321 51 153 2.0 4.0 0.08 0.55 0.54 98 1026.1
20181019124310 51 140 1.0 3.0 0.08 0.54 0.53 98 1026.3
20181019123324 50 174 1.0 4.0 0.08 0.53 0.52 98 1026.3
20181019122314 50 175 1.0 3.0 0.10 0.53 0.52 98 1026.3
20181019121325 50 215 2.0 3.0 0.10 0.51 0.50 98 1026.7
20181019120314 50 215 2.0 3.0 0.10 0.49 0.48 98 1026.8
20181019115308 50 198 3.0 4.0 0.10 0.47 0.46 98 1026.7
20181019114317 50 180 2.0 6.0 0.13 0.46 0.45 97 1026.7
20181019113326 50 182 3.0 6.0 0.17 0.45 0.44 97 1026.7
20181019112319 50 194 4.0 7.0 0.19 0.43 0.42 97 1026.7
20181019111308 51 184 5.0 7.0 0.20 0.41 0.40 97 1026.6
20181019110318 51 140 3.0 7.0 0.23 0.39 0.38 97 1026.3
20181019105321 51 176 4.0 7.0 0.25 0.37 0.36 97 1026.3
20181019104315 52 172 3.0 6.0 0.26 0.33 0.32 97 1026.3
20181019103325 52 206 4.0 9.0 0.23 0.28 0.27 97 1026.7
20181019102314 52 173 5.0 9.0 0.19 0.24 0.23 96 1026.8
20181019101323 52 174 4.0 7.0 0.16 0.21 0.20 96 1026.7
20181019100317 52 194 3.0 9.0 0.11 0.16 0.15 95 1026.9
20181019095307 52 214 6.0 8.0 0.07 0.12 0.11 94 1026.8
20181019094317 53 196 5.0 9.0 0.02 0.07 0.06 93 1026.6
20181019093312 53 191 5.0 10.0 0.00 0.05 0.04 92 1026.6
20181019092321 53 192 6.0 10.0 0.00 0.05 0.04 92 1026.7
20181019091310 53 198 3.0 5.0 0.00 0.05 0.04 95 1026.6
20181019090320 53 182 2.0 2.0 0.00 0.05 0.04 95 1026.6
20181019085314 53 182 1.0 3.0 0.01 0.05 0.04 95 1026.5
20181019084325 53 190 1.0 2.0 0.01 0.05 0.04 96 1026.5
20181019083314 53 218 0.0 1.0 0.01 0.05 0.04 96 1026.5
20181019082324 53 218 0.0 0.0 0.01 0.05 0.04 96 1026.8
20181019081318 53 218 0.0 0.0 0.01 0.05 0.04 95 1026.9
20181019080307 53 218 0.0 0.0 0.02 0.05 0.04 95 1027.1
20181019075317 54 218 0.0 0.0 0.03 0.04 0.03 95 1027.0
20181019074311 54 218 0.0 0.0 0.03 0.04 0.03 94 1027.0
20181019073321 54 218 0.0 0.0 0.03 0.04 0.03 95 1027.3
20181019072310 54 218 0.0 2.0 0.03 0.04 0.03 94 1027.5
20181019071320 54 218 1.0 3.0 0.03 0.04 0.03 93 1027.7
20181019070313 54 147 0.0 3.0 0.02 0.03 0.02 93 1027.3
20181019065326 54 152 1.0 1.0 0.00 0.01 0.00 93 1027.4
20181019064315 54 152 0.0 2.0 0.00 0.01 0.00 94 1027.4
20181019063325 55 153 2.0 3.0 0.00 0.01 0.00 94 1027.3
20181019062319 55 166 0.0 0.0 0.00 0.01 0.00 94 1027.4
20181019061308 55 166 0.0 0.0 0.00 0.01 0.00 94 1027.5
20181019060318 55 166 0.0 0.0 0.00 0.01 0.00 94 1027.6
20181019055312 55 166 0.0 0.0 0.00 0.01 0.00 94 1027.7
20181019054322 55 166 0.0 0.0 0.00 0.01 0.00 94 1027.9
20181019053309 55 166 0.0 0.0 0.00 0.01 0.00 94 1027.8
20181019052319 55 166 0.0 0.0 0.00 0.01 0.00 94 1028.0
20181019051313 55 166 0.0 0.0 0.00 0.01 0.00 94 1028.1
20181019050327 55 166 0.0 0.0 0.00 0.01 0.00 93 1028.1
20181019045310 55 166 0.0 0.0 0.00 0.01 0.01 93 1028.3
20181019044319 55 166 0.0 0.0 0.00 0.01 0.01 93 1028.3
20181019043313 55 166 0.0 0.0 0.00 0.01 0.01 93 1028.5
20181019042320 55 166 0.0 0.0 0.00 0.01 0.01 93 1028.6
20181019041309 55 166 0.0 0.0 0.00 0.01 0.01 93 1028.7
20181019040319 55 212 0.0 0.0 0.00 0.01 0.01 92 1029.1
20181019035309 55 212 0.0 0.0 0.00 0.01 0.01 92 1029.1
20181019034315 55 212 0.0 0.0 0.00 0.01 0.01 91 1029.3
20181019033324 55 212 0.0 0.0 0.00 0.01 0.01 91 1029.6
20181019032317 55 212 0.0 0.0 0.00 0.01 0.01 91 1029.6
20181019031327 55 212 0.0 0.0 0.00 0.01 0.01 91 1029.5
20181019030312 55 212 0.0 0.0 0.00 0.01 0.01 91 1029.4
20181019024315 55 212 0.0 0.0 0.00 0.01 0.01 90 1029.7
20181019023324 55 212 0.0 0.0 0.01 0.01 0.01 91 1029.7
20181019022311 55 212 0.0 0.0 0.01 0.01 0.01 90 1029.5
20181019021321 56 212 0.0 0.0 0.01 0.01 0.01 89 1029.5
20181019020314 56 212 0.0 0.0 0.01 0.01 0.01 89 1029.5
20181019015323 56 212 0.0 0.0 0.01 0.01 0.01 87 1029.8
20181019014309 57 212 1.0 2.0 0.01 0.01 0.01 82 1029.9
20181019013317 57 212 1.0 2.0 0.00 0.00 0.00 84 1029.9
20181019012310 57 203 0.0 2.0 0.00 0.00 0.00 82 1029.8
20181019011318 58 202 1.0 4.0 0.00 0.00 0.00 79 1030.1
20181019010328 58 196 0.0 2.0 0.00 0.00 0.00 77 1030.2
20181019005321 59 197 1.0 3.0 0.00 0.00 0.00 73 1030.3
20181019004311 59 205 3.0 7.0 0.00 0.00 0.00 72 1030.4
20181019003321 59 191 1.0 2.0 0.00 0.00 0.00 73 1030.3
20181019002311 59 191 0.0 0.0 0.00 0.00 0.00 74 1030.2
20181019001324 59 191 1.0 2.0 0.00 0.00 0.00 71 1030.0
20181019000312 60 191 0.0 1.0 0.00 0.00 0.00 69 1029.9
20181018235322 60 191 1.0 2.0 0.00 0.00 0.00 68 1029.9
20181018234311 60 191 2.0 3.0 0.00 0.00 0.00 65 1029.9
20181018233326 61 185 1.0 3.0 0.00 0.00 0.00 64 1029.9
20181018232315 61 184 1.0 3.0 0.00 0.00 0.00 61 1029.9
20181018231325 62 157 2.0 3.0 0.00 0.00 0.00 60 1030.0
20181018230317 63 126 2.0 3.0 0.00 0.00 0.00 56 1030.0
20181018225326 63 138 1.0 4.0 0.00 0.00 0.00 53 1030.1
20181018224315 63 117 3.0 6.0 0.00 0.00 0.00 49 1030.0
20181018223325 64 128 2.0 5.0 0.00 0.00 0.00 50 1030.1
20181018222318 64 130 3.0 5.0 0.00 0.00 0.00 47 1030.3
20181018221308 64 130 3.0 5.0 0.00 0.00 0.00 47 1030.3
20181018220316 64 107 2.0 5.0 0.00 0.00 0.00 48 1030.4
20181018215324 65 121 3.0 8.0 0.00 0.00 0.00 47 1030.5
20181018214309 65 186 2.0 8.0 0.00 0.00 0.00 46 1030.6
20181018213319 66 123 5.0 9.0 0.00 0.00 0.00 43 1030.5
20181018212322 65 97 4.0 9.0 0.00 0.00 0.00 43 1030.5
20181018211312 66 99 4.0 6.0 0.00 0.00 0.00 43 1030.7
20181018210325 66 110 5.0 8.0 0.00 0.00 0.00 40 1030.9
20181018205311 66 84 4.0 6.0 0.00 0.00 0.00 40 1031.0
20181018204321 66 133 3.0 7.0 0.00 0.00 0.00 40 1031.0
20181018203314 66 159 3.0 9.0 0.00 0.00 0.00 40 1031.1
20181018202323 66 138 4.0 8.0 0.00 0.00 0.00 42 1031.1
20181018201309 66 107 5.0 8.0 0.00 0.00 0.00 43 1031.0
20181018200317 66 165 5.0 10.0 0.00 0.00 0.00 43 1031.2
20181018195310 65 146 5.0 9.0 0.00 0.00 0.00 43 1031.3
20181018194317 66 131 4.0 8.0 0.00 0.00 0.00 43 1031.4
20181018193322 66 145 5.0 12.0 0.00 0.00 0.00 43 1031.4
20181018192312 66 161 6.0 10.0 0.00 0.00 0.00 42 1031.7
20181018191325 66 150 5.0 9.0 0.00 0.00 0.00 41 1031.9
20181018190312 67 106 7.0 13.0 0.00 0.00 0.00 41 1032.1
20181018185320 67 144 7.0 9.0 0.00 0.00 0.00 42 1032.3
20181018184309 67 79 2.0 11.0 0.00 0.00 0.00 42 1032.6
20181018183322 68 124 6.0 10.0 0.00 0.00 0.00 41 1032.9
20181018182312 67 110 6.0 9.0 0.00 0.00 0.00 43 1033.2
20181018181321 67 81 9.0 11.0 0.00 0.00 0.00 41 1033.3
20181018180315 67 170 4.0 11.0 0.00 0.00 0.00 39 1033.3
20181018175325 67 90 8.0 12.0 0.00 0.00 0.00 41 1033.2
20181018174314 66 98 5.0 11.0 0.00 0.00 0.00 43 1033.3
20181018173324 66 136 6.0 13.0 0.00 0.00 0.00 43 1033.6
20181018172317 65 124 6.0 14.0 0.00 0.00 0.00 47 1034.0